Overview Statistics Trail Chart Weather Telemetry Raw packets
 

This is the latest recevied weather packets stored in our database for station/object CE3TDM-10. If no packets are shown the sender has not sent any weather packets the latest 10 day(s).

<< 1 2 3 4 >>
Time Temp. Humidity Pressure Rain* Wind** Luminosity Snow
1788615143 25° C 31% 921.3 hPa - - - -
1788613343 23.33° C 31% 921.4 hPa - - - -
1788612443 22.78° C 32% 921.3 hPa - - - -
1788611543 22.78° C 32% 921.5 hPa - - - -
1788610644 22.22° C 32% 921.4 hPa - - - -
1788608843 22.22° C 32% 921.4 hPa - - - -
1788607942 22.78° C 31% 921.4 hPa - - - -
1788607043 22.78° C 31% 921.3 hPa - - - -
1788606142 22.78° C 32% 921.4 hPa - - - -
1788605242 22.78° C 31% 921.3 hPa - - - -
1788603442 22.78° C 31% 921.4 hPa - - - -
1788600742 22.78° C 31% 921.4 hPa - - - -
1788599842 23.33° C 31% 921.5 hPa - - - -
1788598076 23.33° C 31% 921.5 hPa - - - -
1788597142 23.33° C 31% 921.4 hPa - - - -
1788596242 23.33° C 31% 921.6 hPa - - - -
1788594441 23.33° C 31% 921.8 hPa - - - -
1788593541 23.33° C 31% 922 hPa - - - -
1788592641 23.33° C 31% 922.1 hPa - - - -
1788591741 23.33° C 31% 922.2 hPa - - - -
1788590841 23.89° C 31% 922.3 hPa - - - -
1788589944 23.89° C 31% 922.3 hPa - - - -
1788589041 23.89° C 31% 922.6 hPa - - - -
1788588141 23.89° C 31% 922.7 hPa - - - -
1788587241 23.89° C 31% 922.9 hPa - - - -

* Rain since midnight (hover to see other rain measurements)
** Current wind speed in m/s (hover to see current wind gust speed)